Вернуться в каталог

STARLINK-35732

АктивенСвязьVLEO
NORAD 67037·PAYLOAD·🇺🇸 United States

Запущен Dec 11, 2025 с Cape Canaveral Space Force Station

Loading…

Ближайшие Пролёты (ближайшие 24 часа)

TLE

СвежийSource: CelesTrak SupGP

Эпоха: Sep 14, 2026, 15:55 UTC

1 67037C 25294H   26257.66368056 -.00047188  00000+0 -17092-2 0  2574
2 67037  43.0016  51.0925 0001892 273.3280 225.9409 15.27600843    14

Отслеживайте STARLINK-35732 в реальном времени с AllMySat

Download on the App Store